TITAN 3C TRANSTAGE DEB, 28814

Orbit data source: Space-Track

TITAN 3C TRANSTAGE DEB, 28814 is space debris in HEO originally from a launch on Tue, 21 Dec 1965 UTC launched from the Air Force Eastern Test Range (AFETR). Debris objects in space refer to the collection of defunct objects orbiting the Earth. Examples of debris include non-operational satellites, rocket bodies, and fragments generated from explosions, collisions, or faulty payload assembly.

Loading next visibility...
Identifier
28814, 1965-108CB
Orbit
HEO
Country
Flag of USUS
Related business
Manufacturer
Unknown
Mission
Spacecraft
Bus & Motor
Unknown
Mass
Unknown
Launch date (UTC)
1965-12-21 (60 years ago)
Launch vehicle
Unknown
Launch site
Air Force Eastern Test Range (AFETR)
Object type
Payload
Rocket body
Debris
Shape & HBR
Unknown shape, 0.1 m
Radar Cross Section
Small (<0.1 m²)

Expand to show TLE details & history
Last TLE update: 2 weeks ago

TLE from 2 weeks ago
0 TITAN 3C TRANSTAGE DEB
1 28814U 65108CB  25332.04318135 -.00000004  00000-0  16532-2 0  9997
2 28814  26.7497  82.1988 6773417 205.5203 354.5130  2.60086445125945
Epoch: 2025-11-28T01:02Z
TLE epoch observation values (Epoch: 2025-11-28T01:02:10.868Z)
Latitude
4.70857°
Longitude
170.08612°
Altitude
1,426.285 km
Speed
9.181 km/s
True Right ascension
16h 51m 17s
True Declination
4° 40' 59"
Sunlit
Object was in daylight at epoch
Visualization orbit readout
Latitude
Unknown
Longitude
Unknown
Altitude
Unknown
Speed
Unknown
Apparent Right ascension
Unknown
Apparent Declination
Unknown
Sunlit
N/A
Visualization observer readout
Local Sidereal Time
05:52:19
Azimuth
Unknown
Elevation
Unknown
Doppler factor
Unknown
Orbital elements
Apogee altitude
31,091.448 km
Perigee altitude
829.621 km
Semi-major axis
22,338.671 km
Eccentricity
0.67734
Inclination
26.7497°
RAAN
82.1988°
Arg. of periapsis
205.5203°
True anomaly
323.35783°
Mean anomaly
354.513°
Eccentric anomaly
343.47347°
Mean motion
0.65007 °/min
Orbital period
553.79 mins
BSTAR
0.0016532
Loading maneuver chart data...
Computing Atmospheric mass density...

Documentation

Showing up to 5 results
|